EHI
0 0 0 0 1 1 1 1 3 4 5 5 5 5 5 6 9 13 14 14 15 14 10 8 11 16 19 21 23 23 21 17 13 12 12 13 13 11 10 11 13 15 16 17
0 0 0 0 1 1 1 2 3 4 5 6 6 6 6 7 8 10 11 11 13 14 13 13 13 15 17 19 22 25 24 20 16 15 14 12 11 11 11 11 13 15 16 16
0 0 0 0 1 1 1 1 2 2 4 6 6 6 7 8 9 10 11 11 13 15 17 18 16 15 16 18 22 26 26 23 21 20 16 12 10 11 11 11 13 15 15 15
0 0 0 0 0 0 1 2 1 2 4 6 6 7 8 10 12 13 14 15 15 17 19 21 19 16 17 21 24 26 26 26 25 23 19 15 13 11 10 11 13 14 14 13
0 0 0 1 1 1 1 2 3 5 7 8 8 9 10 11 13 14 14 16 17 18 19 21 20 18 18 22 25 25 25 25 24 23 21 17 14 13 11 11 13 15 14 12
0 0 0 1 3 2 1 2 4 7 9 9 9 10 10 10 11 12 13 15 16 17 19 20 20 20 21 23 23 22 22 22 21 21 21 19 17 15 14 13 13 14 13 13
0 0 0 1 3 2 0 1 3 5 6 8 11 11 11 11 11 11 13 14 15 16 17 18 19 21 23 23 20 19 20 20 19 19 20 20 19 18 16 14 13 13 14 14
0 0 0 1 1 1 1 1 2 3 5 9 14 15 15 15 14 12 12 13 15 14 14 15 16 18 20 20 18 18 18 19 18 18 18 18 19 18 16 15 15 14 14 14
1 1 1 1 2 2 3 3 4 5 7 12 15 17 18 18 15 13 11 13 15 14 14 13 13 13 14 15 15 16 16 17 17 16 14 14 15 16 15 15 15 14 13 12
3 3 3 3 3 4 5 5 6 6 8 12 14 14 16 15 13 11 11 13 15 16 15 12 10 10 10 11 12 13 14 15 15 14 12 11 12 14 14 14 13 12 11 10
5 4 5 5 5 5 6 6 6 7 9 11 11 10 11 11 9 7 8 11 13 15 13 9 7 7 8 10 10 11 12 13 14 12 11 10 10 10 10 10 9 9 9 9
4 4 4 4 4 4 4 5 6 7 9 10 9 8 8 9 7 6 6 8 10 11 9 7 5 5 7 9 10 10 10 11 12 12 11 10 10 8 7 6 6 5 6 7
3 3 4 4 4 3 4 5 7 8 8 8 8 7 6 8 8 6 6 6 7 7 6 5 5 5 6 8 9 8 7 8 10 11 12 11 10 8 7 6 4 3 2 2
2 3 5 6 5 4 5 7 8 8 7 7 6 4 4 6 6 5 4 4 5 5 5 4 4 4 5 6 6 6 4 4 6 8 10 10 10 9 9 7 5 4 2 0
3 4 6 6 6 5 6 7 8 7 6 6 4 2 2 3 4 2 1 2 5 5 3 3 3 3 3 3 3 3 2 1 2 3 5 7 8 9 9 8 7 5 3 1
3 3 4 4 4 4 4 6 6 6 6 6 4 1 1 2 2 1 0 1 3 3 2 2 3 2 2 1 1 2 2 1 1 1 1 3 6 7 7 7 7 6 4 3
2 1 1 1 1 1 2 4 5 6 5 4 2 1 1 1 1 1 1 0 1 1 1 1 1 1 1 1 1 1 1 1 2 1 1 1 4 5 6 6 6 6 5 5
1 0 0 0 0 0 1 1 3 3 3 2 1 0 0 0 1 1 1 1 1 0 0 0 0 0 1 1 0 0 0 1 1 1 0 1 2 4 5 6 6 6 5 5
0 0 0 0 0 0 0 0 1 1 1 0 0 0 0 0 0 1 1 2 1 0 0 0 0 0 0 0 0 0 0 0 0 0 0 0 1 1 3 4 4 4 3 3
0 0 0 0 0 0 0 0 0 0 0 0 0 0 0 0 0 1 2 2 1 0 0 0 0 0 0 0 0 1 1 0 0 0 0 0 0 0 1 1 1 1 1 1
0 0 0 0 0 0 0 0 0 0 0 0 0 0 0 0 0 1 1 1 0 0 0 0 0 0 0 0 0 1 1 0 0 0 0 0 0 0 0 0 0 0 0 0
0 0 0 0 0 0 0 0 0 0 0 0 0 0 0 0 0 0 0 0 0 0 0 0 0 0 0 0 0 1 1 0 0 0 0 0 0 0 0 0 0 0 0 0
0 0 0 0 0 0 0 0 0 0 0 0 0 0 0 0 0 0 0 0 0 0 0 0 0 0 0 0 0 0 0 0 0 0 0 0 0 0 0 0 0 0 0 0
0 0 0 0 0 0 0 0 0 0 0 0 0 0 0 0 0 0 0 0 0 0 0 0 0 0 0 0 0 0 0 0 0 0 0 0 0 0 0 0 0 0 0 0
0 0 0 0 0 0 0 0 0 0 0 0 0 0 0 0 0 0 0 0 0 0 0 0 0 0 0 0 0 0 0 0 0 0 0 0 0 0 0 0 0 0 0 0
0 0 0 0 0 0 0 0 0 0 0 0 0 0 0 0 0 0 0 0 0 0 0 0 0 0 0 0 0 0 0 0 0 0 0 0 0 0 0 0 0 0 0 0
0 0 0 0 0 0 0 0 0 0 0 0 0 0 0 0 0 0 0 0 0 0 0 0 0 0 0 0 0 0 0 0 0 0 0 0 0 0 0 0 0 0 0 0
Wind_Speed
3 3 2 1 1 1 2 5 6 5 5 6 5 5 4 4 4 5 4 4 5 5 4 4 4 3 4 4 3 4 4 4 4 4 3 2 2 2 2 2 3 2 2 2
3 2 3 2 1 0 1 2 4 4 2 4 4 4 3 3 5 5 4 5 5 5 5 4 5 4 4 4 4 4 4 4 3 3 2 2 2 2 2 2 2 2 2 2
2 4 5 3 2 2 2 1 5 4 4 3 3 4 5 4 4 4 4 5 6 6 6 6 6 6 5 4 4 4 4 3 3 3 3 3 3 2 2 2 2 2 2 2
1 4 0 6 3 5 5 3 3 3 3 4 4 4 4 4 6 5 4 4 4 4 4 4 4 4 4 3 3 3 3 3 3 3 3 2 2 2 2 2 2 2 2 3
3 2 3 4 2 3 5 3 3 4 2 2 4 5 2 0 2 4 4 4 3 4 4 4 4 4 4 3 3 3 3 3 3 4 3 2 3 3 3 2 2 2 2 2
4 3 3 5 4 1 8 2 3 3 2 2 4 3 3 2 1 2 2 2 3 2 3 3 3 4 4 3 3 3 4 4 3 3 3 4 4 3 2 2 2 2 2 2
3 2 4 5 5 3 4 5 2 2 1 2 3 5 4 1 2 2 2 2 3 3 3 2 3 4 4 3 3 4 3 3 2 3 3 3 2 2 2 2 1 1 2 2
3 2 5 5 4 3 5 3 2 1 1 1 1 1 2 2 2 2 2 1 2 3 2 2 3 4 3 2 2 2 2 2 2 2 2 1 1 1 1 2 2 2 2 2
5 5 5 1 3 2 4 3 2 2 1 3 3 1 2 2 2 1 1 1 2 3 2 1 1 3 3 2 1 1 2 2 1 1 1 1 1 1 1 1 1 2 2 2
3 1 0 2 3 3 3 3 2 3 2 3 2 2 2 2 2 2 1 2 3 4 4 1 1 2 2 1 1 2 1 1 1 1 0 1 0 1 1 2 2 2 2 2
2 1 3 4 2 2 3 4 4 4 3 2 3 2 2 2 2 2 1 2 2 3 3 1 1 1 0 1 2 2 1 1 1 1 1 1 1 1 2 2 3 3 3 2
4 5 3 2 2 2 3 3 3 3 3 2 2 2 2 2 2 2 2 2 2 2 2 2 1 0 1 0 2 2 1 0 1 1 1 1 1 2 3 2 3 3 3 3
4 3 2 2 1 2 2 2 2 3 2 1 1 2 3 3 2 2 2 2 2 2 2 1 1 0 1 1 1 1 1 1 0 1 1 2 1 2 2 3 2 2 2 2
3 4 3 1 1 2 2 2 3 3 2 2 2 2 3 2 2 2 1 1 2 2 1 1 1 1 2 1 0 1 1 1 1 1 1 2 2 2 2 2 2 2 2 2
2 3 2 1 2 3 3 3 3 3 2 1 1 2 3 3 2 2 1 1 1 1 0 1 1 2 2 1 1 1 1 1 1 1 1 2 2 1 1 2 2 2 2 2
1 2 2 2 2 3 3 3 2 1 1 1 1 1 2 2 2 1 1 2 2 1 1 1 2 3 2 1 1 1 1 2 2 1 1 1 1 1 1 1 2 1 1 1
2 1 1 2 2 1 2 1 1 1 1 1 1 1 2 2 2 2 1 1 0 1 1 1 3 3 2 2 1 1 1 2 2 1 1 2 1 2 2 1 1 1 2 2
2 1 1 1 1 1 2 2 2 2 1 1 1 2 3 3 2 0 1 1 1 2 2 2 2 2 1 1 1 1 1 1 1 2 2 2 2 2 1 1 2 2 2 1
1 1 2 2 1 2 2 1 2 1 1 2 3 2 2 2 1 1 0 1 1 2 4 3 2 1 2 2 2 1 1 1 1 1 1 2 2 1 1 1 1 2 1 1
2 2 2 2 2 2 1 1 1 1 1 2 3 2 2 0 0 0 0 1 2 3 3 3 2 2 2 2 1 1 1 1 1 1 1 1 1 2 1 1 1 1 1 1
2 2 2 2 1 2 1 1 2 1 1 2 2 1 1 1 1 0 0 2 4 3 2 3 2 2 2 2 1 1 1 1 1 2 2 2 1 1 1 1 1 1 1 1
2 2 1 2 2 2 2 1 1 1 1 1 1 0 0 1 1 1 1 3 3 3 2 1 2 2 2 2 1 1 1 2 2 2 2 2 2 1 1 1 1 2 2 1
1 1 1 1 1 1 2 1 1 1 0 0 1 1 1 2 1 1 2 3 2 2 2 2 2 3 3 1 1 1 2 2 2 2 2 2 2 2 1 1 1 1 1 1
1 1 1 1 1 2 2 3 1 0 1 1 1 1 1 1 1 2 2 2 2 2 2 3 3 3 2 1 1 1 1 1 1 1 1 1 1 1 1 1 1 1 1 1
1 1 1 1 1 1 2 2 2 1 1 1 1 1 1 1 1 2 1 1 2 2 2 2 3 3 2 1 1 1 1 1 1 1 1 1 1 1 1 1 1 1 1 0
1 2 2 3 2 2 1 1 1 1 1 1 1 1 1 1 1 0 1 1 2 2 1 1 1 2 1 0 0 0 1 1 1 0 0 0 0 0 0 1 0 0 0 0
2 2 1 1 2 1 1 1 1 1 1 1 1 1 1 1 1 1 1 1 1 1 1 1 1 0 0 0 0 0 0 1 1 1 1 1 1 0 0 1 0 0 0 0
Wind_Direction
204 208 167 205 267 215 143 174 172 196 187 210 194 171 160 145 133 124 120 134 145 156 165 160 155 161 164 169 173 173 171 179 197 204 195 185 175 176 177 192 209 215 215 226
358 10 57 28 353 109 142 126 138 135 206 218 170 142 125 127 127 130 139 156 161 156 163 165 168 178 180 185 187 174 173 185 192 188 182 182 182 176 173 201 222 224 221 222
308 325 31 351 257 150 119 164 147 168 210 159 136 144 153 150 146 158 153 161 170 170 176 178 182 182 188 189 173 166 178 188 187 175 176 189 188 180 195 208 216 237 243 230
113 41 152 249 243 121 106 52 66 106 136 151 164 170 153 151 158 163 160 161 172 178 180 174 172 175 179 171 168 175 185 190 189 184 191 197 191 199 212 212 216 229 242 235
114 141 267 296 333 133 120 40 26 92 94 112 97 70 29 326 162 166 170 174 173 181 176 170 173 175 162 168 179 183 192 193 190 187 192 202 215 221 213 203 219 234 243 239
121 140 214 260 301 125 94 46 347 74 92 116 99 94 258 280 121 139 155 155 143 143 119 131 174 160 156 175 177 196 202 199 192 189 197 212 222 221 207 197 212 225 252 248
141 172 253 280 311 55 107 219 278 44 77 119 152 193 210 165 110 131 144 138 123 124 130 159 167 149 156 171 198 209 199 187 194 203 210 219 219 207 194 193 208 238 259 267
135 158 249 310 31 109 189 199 140 82 81 98 106 119 115 116 120 116 106 101 119 130 143 164 152 138 143 186 212 198 178 180 199 208 223 224 199 207 204 204 222 249 260 277
165 198 236 326 118 161 150 135 142 132 107 96 79 96 102 94 92 80 85 83 129 132 119 107 135 137 151 217 195 168 162 175 189 187 215 199 180 211 237 239 240 258 253 264
77 305 358 49 71 74 96 121 134 119 113 104 98 121 115 109 90 73 54 78 98 108 105 80 52 107 153 200 160 130 131 153 170 186 260 319 251 223 229 240 243 254 248 255
90 286 25 12 34 80 74 74 73 69 80 102 108 110 132 122 108 98 94 91 107 123 127 136 107 87 181 164 130 108 111 164 194 200 217 249 272 262 242 236 223 224 232 226
197 220 168 249 289 98 91 83 86 79 54 41 108 118 116 126 128 119 120 115 108 124 133 141 138 119 321 328 127 130 143 223 234 227 245 248 260 323 325 282 279 253 234 222
174 181 164 231 338 73 103 103 102 104 117 113 83 119 127 126 128 119 108 118 136 150 151 158 164 268 295 274 156 161 181 213 239 246 250 247 235 221 281 317 319 282 256 250
113 100 68 23 9 24 62 88 91 86 87 122 128 114 114 116 120 121 137 175 164 150 154 163 173 260 265 246 179 208 208 217 211 232 245 240 228 224 220 230 271 299 289 258
63 101 161 177 36 31 50 72 72 60 52 66 124 122 124 135 153 186 192 147 118 105 149 176 207 264 262 209 184 215 228 245 237 231 239 235 229 223 234 239 239 261 305 311
42 35 43 48 34 27 47 60 68 42 47 70 89 110 140 150 145 122 107 114 112 158 251 241 257 264 255 217 203 213 226 252 241 234 248 255 249 235 233 240 242 235 245 274
77 32 27 22 12 28 39 51 89 102 86 84 117 118 104 98 89 82 73 83 156 239 254 254 270 280 271 244 220 230 229 244 257 256 247 248 245 242 231 221 222 221 239 240
124 169 194 166 141 84 40 38 55 73 95 102 90 90 100 111 125 180 268 307 350 343 313 287 273 273 279 268 239 236 227 234 234 235 245 248 247 242 236 224 213 214 249 265
65 56 53 84 101 114 103 77 70 80 87 91 89 96 112 130 157 196 32 25 351 311 295 289 289 286 275 271 266 239 235 241 246 252 262 270 269 259 241 236 237 244 246 256
46 41 55 46 36 74 89 83 78 73 82 103 100 89 73 42 213 211 314 282 258 250 266 290 304 292 278 285 292 249 246 238 236 246 241 247 259 259 244 226 220 237 252 244
46 35 45 44 39 48 68 82 88 84 82 105 115 141 206 257 255 199 14 300 292 283 283 296 294 279 268 264 267 244 237 225 226 229 232 241 259 256 234 224 230 249 257 248
53 68 73 65 57 25 5 44 106 122 106 101 120 148 218 287 290 303 275 250 267 291 296 292 285 282 281 273 254 250 248 234 227 232 229 225 227 238 240 237 246 253 251 241
50 64 62 66 70 36 0 358 16 100 131 237 259 256 239 245 232 207 281 279 275 298 301 285 293 303 306 293 274 265 262 252 239 236 232 227 218 219 231 237 246 254 250 240
21 17 6 341 15 14 338 310 307 303 239 250 263 264 251 263 290 261 236 255 280 306 302 300 303 305 301 279 261 257 259 258 253 230 213 214 222 229 240 239 242 250 252 239
267 278 294 319 315 281 270 278 299 301 299 309 299 297 280 211 215 264 273 273 287 309 317 315 303 302 302 283 266 262 261 265 260 231 211 211 223 230 229 221 209 209 229 234
282 268 256 243 237 243 248 246 253 272 293 317 312 308 308 305 286 276 272 290 304 305 298 289 290 296 304 307 302 303 296 303 321 350 14 21 359 7 332 292 286 209 199 245
297 297 304 315 306 271 230 218 221 248 226 200 280 300 301 310 329 326 323 321 320 320 321 317 312 310 303 298 57 27 356 12 40 47 47 55 59 53 27 51 45 357 36 34